Location: Maccacari
(45.1333°N, 11.1333°E)
Time: 02:44:11
(UTC+00:00)

Vanguard 2 - Pass Details

Date: 23 January 2021
Orbit: 552 x 2938 km, 32.9° (Epoch: 05 March)

Event Time Altitude Azimuth Distance (km) Brightness Sun altitude
Rises 20:39:12 0° 254° (WSW) 3,379 11.3 -46.7°
Enters shadow 20:40:49 - 244° (WSW) 3,009 10.9 -47.0°
Reaches altitude 10° 20:42:25 10° 232° (SW) 2,753 - -47.2°
Maximum altitude 20:46:21 16° 195° (SSW) 2,712 - -47.9°
Drops below altitude 10° 20:51:24 10° 161° (SSE) 3,685 - -48.7°
Sets 20:56:53 0° 144° (SE) 5,220 - -49.5°
